Tracking 17150 objects as of 4-August-2015
HD Live streaming from Space Station

BREEZE-M DEB

Track BREEZE-M DEB now!
10-day predictions
BREEZE-M DEB is classified as:


NORAD ID: 34250
Int'l Code: 2006-006BR
Perigee: 516.5 km
Apogee: 14,746.9 km
Inclination: 51.7 °
Period: 274.8 minutes
Semi major axis: 14002 km
RCS: 0.0694 m2 (small)
Launch date: February 28, 2006
Source: Commonwealth of Independent States (former USSR) (CIS)

Note: This is SATELLITE DEBRIS
Your satellite tracking list
Your tracking list is empty





NASA's NSSDC Master Catalog

Two Line Element Set (TLE):
1 34250U 06006BR  15212.08630421  .00001041  00000-0  19235-2 0  9999
2 34250 051.6961 176.2364 5081315 027.8992 351.8526 05.23945944146076

Source of the keplerian elements: AFSPC

N2YO: 349